Starlink 31855

operational
NORAD ID: 59838 Int'l Des: 2024-097 Owner: SPXS Country: US Constellation: starlink
LEOCIRCULAR

About Starlink 31855

Description loading...

Live Position

Loading 3D Globe...

Upcoming Passes

Altitude History

Altitude vs Time

uPlot chart will show altitude changes over time

Two-Line Element Set

1 59838U 24097D 25304.24865566 .00039095 00000-0 14217-2 0 9994
2 59838 43.0010 285.0927 0000983 268.3437 91.7303 15.27603126 82128
Epoch: Oct 31, 2025 • Age: 14 hours

Current Status

Altitude 495.5 km
Velocity 7.62 km/s
Sub-Earth Point -43.11°S, 140.75°W
Launch Date May 23, 2024
Age 1.4 years
Type internet

Technical Details

Classification Payload
Mass 730.00 kg
Dry Mass 700.00 kg
Total Mass 730.00 kg
Length 0.30 m
Diameter 4.10 m
Span 29.00 m
Shape Box + pan
Manufacturer SPXS
Bus Type Starlink V2M
Phase Status In Orbit
Owner/State SPXS/US

Large Constellations

Loading constellations...